Location: Unspecified
(0.0000°N, 0.0000°E)
Time: 07:07:21
(UTC+00:00)

Altair - All Passes

Search period start: 03 April 2020 00:00
Search period end: 13 April 2020 00:00
Orbit: 1501 x 1682 km, 47.2° (Epoch: 02 April)

Date Brightness Start Highest point End Pass type
(mag) Time Alt. Az. Time Alt. Az. Time Alt. Az.
03 Apr - 08:32:04 10° S 08:38:03 17° SE 08:43:54 10° E daylight
03 Apr - 10:33:09 10° SW 10:43:10 86° SE 10:52:45 10° NE daylight
03 Apr - 12:41:43 10° W 12:47:54 19° NW 12:53:59 10° N daylight
03 Apr - 21:19:06 10° NNW 21:27:25 36° NE 21:35:58 10° ESE visible
03 Apr - 23:23:01 10° WNW 23:31:56 47° SW 23:41:15 10° SSE night (unlit)
04 Apr - 08:07:36 10° SSE 08:12:44 15° SE 08:17:47 10° ESE daylight
04 Apr - 10:07:58 10° SW 10:17:59 78° SE 10:27:35 10° NE daylight
04 Apr - 12:15:47 10° W 12:22:40 21° NW 12:29:25 10° N daylight
04 Apr - 20:54:15 10° N 21:02:14 32° NE 21:10:25 10° ESE visible
04 Apr - 22:57:42 10° NW 23:06:45 53° SW 23:16:12 10° SSE night (unlit)
05 Apr - 07:43:23 10° SSE 07:47:25 13° SE 07:51:24 10° ESE daylight
05 Apr - 09:42:49 10° SSW 09:52:48 70° SE 10:02:23 10° NE daylight
05 Apr - 11:49:59 10° W 11:57:26 24° NW 12:04:45 10° N daylight
05 Apr - 20:29:27 10° N 20:37:04 28° NE 20:44:49 10° ESE visible
05 Apr - 22:32:25 10° NW 22:41:34 60° SW 22:51:08 10° SSE visible
06 Apr - 07:19:45 10° SSE 07:22:04 11° SE 07:24:23 10° ESE daylight
06 Apr - 09:17:42 10° SSW 09:27:37 63° SE 09:37:08 10° NE daylight
06 Apr - 11:24:16 10° WSW 11:32:14 28° NW 11:40:00 10° N daylight
06 Apr - 20:04:42 10° N 20:11:51 25° NE 20:19:09 10° E visible
06 Apr - 22:07:11 10° NW 22:16:25 67° SW 22:26:02 10° SSE visible
07 Apr - 00:19:02 10° WSW 00:21:47 11° SW 00:24:35 10° SSW night (unlit)
07 Apr - 08:52:36 10° SSW 09:02:25 56° SE 09:11:52 10° NE daylight
07 Apr - 10:58:38 10° WSW 11:07:02 32° NW 11:15:12 10° N daylight
07 Apr - 19:40:02 10° N 19:46:39 22° NE 19:53:24 10° E visible
07 Apr - 21:41:59 10° NW 21:51:14 74° SW 22:00:55 10° SE visible
07 Apr - 23:52:19 10° WSW 23:56:28 13° SW 00:00:42 10° SSW night (unlit)
08 Apr - 08:27:33 10° SSW 08:37:13 51° SE 08:46:32 10° ENE daylight
08 Apr - 10:33:03 10° WSW 10:41:50 36° NW 10:50:21 10° NNE daylight
08 Apr - 19:15:25 10° N 19:21:27 19° NE 19:27:33 10° E visible
08 Apr - 21:16:49 10° NW 21:26:05 83° SW 21:35:45 10° SE visible
08 Apr - 23:26:04 10° WSW 23:31:10 16° SW 23:36:24 10° SSW night (unlit)
09 Apr - 08:02:31 10° SSW 08:12:01 45° SE 08:21:12 10° ENE daylight
09 Apr - 10:07:32 10° WSW 10:16:38 40° NW 10:25:28 10° NNE daylight
09 Apr - 18:50:56 10° N 18:56:13 16° NE 19:01:32 10° E visible
09 Apr - 20:51:40 10° NW 21:00:57 89° NE 21:10:34 10° SE visible
09 Apr - 23:00:03 10° W 23:05:53 18° SW 23:11:53 10° S visible
10 Apr - 07:37:31 10° SSW 07:46:48 40° SE 07:55:47 10° ENE daylight
10 Apr - 09:42:05 10° WSW 09:51:27 45° NW 10:00:32 10° NNE daylight
10 Apr - 18:26:38 10° NNE 18:30:58 14° NE 18:35:19 10° ENE visible
10 Apr - 20:26:33 10° NW 20:35:48 80° NE 20:45:22 10° SE visible
10 Apr - 22:34:11 10° W 22:40:38 20° SW 22:47:16 10° S visible
11 Apr - 07:12:34 10° SSW 07:21:34 36° SE 07:30:19 10° ENE daylight
11 Apr - 09:16:39 10° WSW 09:26:15 51° NW 09:35:34 10° NNE daylight
11 Apr - 18:02:43 10° NNE 18:05:42 12° NE 18:08:42 10° ENE daylight
11 Apr - 20:01:29 10° NNW 20:10:39 72° NE 20:20:07 10° SE visible
11 Apr - 22:08:27 10° W 22:15:23 23° SW 22:22:33 10° S visible
12 Apr - 06:47:38 10° S 06:56:20 32° SE 07:04:48 10° ENE daylight
12 Apr - 08:51:16 10° SW 09:01:04 57° NW 09:10:34 10° NNE daylight
12 Apr - 19:36:25 10° NNW 19:45:30 64° NE 19:54:51 10° SE visible
12 Apr - 21:42:48 10° W 21:50:09 26° SW 21:57:45 10° S visible
